• In Czech Republic
  • List of Countries
  • For 7 days
  • Water Temperature
  • Satellite Maps
  • Weather Map
  • Weather Widgets
  • user-avatar
    Login

    Hourly Weather Santa Ana Chiautempan

    Today, 18 January, Thursday

    Time Temperature Precipitation Wind Pressure Humidity
    00:00 +7°C° 0 mm 2 mps 579 mmHg 80%
    01:00 +7°C° 0 mm 2 mps 579 mmHg 81%
    02:00 +6°C° 0 mm 2 mps 578 mmHg 83%
    03:00 +6°C° 0 mm 2 mps 578 mmHg 84%
    04:00 +6°C° 0 mm 2 mps 578 mmHg 85%
    05:00 +5°C° 0 mm 2 mps 578 mmHg 86%
    06:00 +6°C° 0 mm 2 mps 578 mmHg 80%
    07:00 +8°C° 0 mm 2 mps 579 mmHg 74%
    08:00 +9°C° 0 mm 2 mps 580 mmHg 68%
    09:00 +12°C° 0 mm 2 mps 580 mmHg 60%
    10:00 +13°C° 0 mm 2 mps 581 mmHg 51%
    11:00 +15°C° 0 mm 2 mps 582 mmHg 43%
    12:00 +16°C° 0 mm 3 mps 581 mmHg 41%
    13:00 +17°C° 0 mm 3 mps 581 mmHg 39%
    14:00 +17°C° 0 mm 3 mps 580 mmHg 38%
    15:00 +16°C° 0 mm 3 mps 580 mmHg 43%
    16:00 +14°C° 0 mm 3 mps 579 mmHg 47%
    17:00 +13°C° 0 mm 3 mps 579 mmHg 52%
    18:00 +13°C° 0 mm 2 mps 579 mmHg 60%
    19:00 +10°C° 0 mm 2 mps 579 mmHg 67%
    20:00 +10°C° 0 mm 1 mps 578 mmHg 74%
    21:00 +10°C° 0 mm 1 mps 578 mmHg 76%
    22:00 +9°C° 0 mm 1 mps 578 mmHg 78%
    23:00 +9°C° 0 mm 1 mps 578 mmHg 80%

    Tomorrow, 19 January, Friday

    Time Temperature Precipitation Wind Pressure Humidity
    00:00 +9°C° 0 mm 1 mps 577 mmHg 81%
    01:00 +8°C° 0 mm 1 mps 577 mmHg 81%
    02:00 +8°C° 0 mm 1 mps 576 mmHg 82%
    03:00 +8°C° 0 mm 1 mps 576 mmHg 79%
    04:00 +8°C° 0 mm 1 mps 576 mmHg 77%
    05:00 +7°C° 0 mm 1 mps 576 mmHg 75%
    06:00 +9°C° 0 mm 1 mps 577 mmHg 67%
    07:00 +10°C° 0 mm 1 mps 578 mmHg 60%
    08:00 +12°C° 0 mm 1 mps 579 mmHg 52%
    09:00 +13°C° 0 mm 1 mps 579 mmHg 46%
    10:00 +15°C° 0 mm 2 mps 580 mmHg 41%
    11:00 +17°C° 0 mm 3 mps 580 mmHg 35%
    12:00 +17°C° 0 mm 3 mps 580 mmHg 35%
    13:00 +18°C° 0 mm 3 mps 579 mmHg 35%
    14:00 +18°C° 0 mm 4 mps 578 mmHg 35%
    15:00 +17°C° 0 mm 3 mps 578 mmHg 39%
    16:00 +16°C° 0 mm 3 mps 578 mmHg 43%
    17:00 +14°C° 0 mm 3 mps 577 mmHg 47%
    18:00 +14°C° 0 mm 2 mps 577 mmHg 52%
    19:00 +13°C° 0 mm 2 mps 577 mmHg 56%
    20:00 +12°C° 0 mm 1 mps 577 mmHg 60%
    21:00 +11°C° 0 mm 1 mps 577 mmHg 64%
    22:00 +11°C° 0 mm 1 mps 577 mmHg 67%
    23:00 +10°C° 0 mm 1 mps 577 mmHg 70%

    Day after tomorrow, 20 January, Saturday

    Time Temperature Precipitation Wind Pressure Humidity
    00:00 +10°C° 0 mm 1 mps 576 mmHg 72%
    01:00 +9°C° 0 mm 1 mps 576 mmHg 74%
    02:00 +9°C° 0 mm 1 mps 575 mmHg 75%
    03:00 +9°C° 0 mm 1 mps 575 mmHg 76%
    04:00 +8°C° 0 mm 1 mps 575 mmHg 76%
    05:00 +8°C° 0 mm 1 mps 575 mmHg 77%
    06:00 +10°C° 0 mm 1 mps 576 mmHg 71%
    07:00 +11°C° 0 mm 1 mps 577 mmHg 64%
    08:00 +12°C° 0 mm 0 mps 578 mmHg 58%
    09:00 +15°C° 0 mm 1 mps 579 mmHg 50%
    10:00 +16°C° 0 mm 1 mps 579 mmHg 43%
    11:00 +19°C° 0 mm 1 mps 580 mmHg 35%
    12:00 +18°C° 0 mm 2 mps 579 mmHg 34%
    13:00 +19°C° 0 mm 2 mps 579 mmHg 32%
    14:00 +19°C° 0 mm 3 mps 578 mmHg 31%
    15:00 +18°C° 0 mm 3 mps 578 mmHg 35%
    16:00 +17°C° 0 mm 2 mps 577 mmHg 39%
    17:00 +16°C° 0 mm 2 mps 577 mmHg 43%
    18:00 +15°C° 0 mm 2 mps 577 mmHg 48%
    19:00 +14°C° 0 mm 1 mps 577 mmHg 52%
    20:00 +12°C° 0 mm 1 mps 577 mmHg 56%
    21:00 +12°C° 0 mm 1 mps 577 mmHg 57%
    22:00 +12°C° 0 mm 1 mps 576 mmHg 58%
    23:00 +11°C° 0 mm 1 mps 576 mmHg 59%

    21 January, Sunday

    Time Temperature Precipitation Wind Pressure Humidity
    00:00 +11°C° 0 mm 1 mps 576 mmHg 61%
    01:00 +10°C° 0 mm 1 mps 575 mmHg 63%
    02:00 +10°C° 0 mm 1 mps 575 mmHg 66%
    03:00 +10°C° 0 mm 1 mps 575 mmHg 68%
    04:00 +9°C° 0 mm 1 mps 575 mmHg 70%
    05:00 +9°C° 0 mm 1 mps 574 mmHg 72%
    06:00 +11°C° 0 mm 1 mps 575 mmHg 67%
    07:00 +12°C° 0 mm 1 mps 576 mmHg 61%
    08:00 +14°C° 0 mm 1 mps 577 mmHg 55%
    09:00 +16°C° 0 mm 1 mps 578 mmHg 46%
    10:00 +18°C° 0 mm 2 mps 579 mmHg 37%
    11:00 +20°C° 0 mm 3 mps 579 mmHg 28%
    12:00 +20°C° 0 mm 3 mps 579 mmHg 27%
    13:00 +21°C° 0 mm 3 mps 578 mmHg 25%
    14:00 +21°C° 0 mm 3 mps 577 mmHg 24%
    15:00 +20°C° 0 mm 3 mps 577 mmHg 28%
    16:00 +19°C° 0 mm 3 mps 577 mmHg 33%
    17:00 +18°C° 0 mm 2 mps 576 mmHg 37%
    18:00 +16°C° 0 mm 2 mps 576 mmHg 41%
    19:00 +15°C° 0 mm 1 mps 576 mmHg 45%
    20:00 +13°C° 0 mm 1 mps 576 mmHg 48%
    21:00 +13°C° 0 mm 1 mps 576 mmHg 49%
    22:00 +12°C° 0 mm 1 mps 576 mmHg 49%
    23:00 +12°C° 0 mm 1 mps 576 mmHg 49%

    22 January, Monday

    Time Temperature Precipitation Wind Pressure Humidity
    00:00 +12°C° 0 mm 1 mps 575 mmHg 50%
    01:00 +11°C° 0 mm 1 mps 575 mmHg 51%
    02:00 +11°C° 0 mm 1 mps 575 mmHg 52%
    03:00 +11°C° 0 mm 1 mps 575 mmHg 54%
    04:00 +10°C° 0 mm 1 mps 575 mmHg 55%
    05:00 +10°C° 0 mm 1 mps 575 mmHg 56%
    06:00 +12°C° 0 mm 1 mps 576 mmHg 53%
    07:00 +13°C° 0 mm 1 mps 577 mmHg 49%
    08:00 +14°C° 0 mm 1 mps 578 mmHg 45%
    09:00 +16°C° 0 mm 2 mps 579 mmHg 41%
    10:00 +18°C° 0 mm 2 mps 579 mmHg 36%
    11:00 +19°C° 0 mm 2 mps 580 mmHg 32%
    12:00 +20°C° 0 mm 3 mps 579 mmHg 32%
    13:00 +20°C° 0 mm 3 mps 579 mmHg 33%
    14:00 +21°C° 0 mm 4 mps 579 mmHg 34%
    15:00 +19°C° 0.1 mm 4 mps 578 mmHg 41%
    16:00 +18°C° 0.1 mm 4 mps 578 mmHg 48%
    17:00 +15°C° 0.1 mm 4 mps 577 mmHg 56%
    18:00 +14°C° 0 mm 3 mps 577 mmHg 63%
    19:00 +13°C° 0 mm 3 mps 578 mmHg 70%
    20:00 +11°C° 0 mm 3 mps 578 mmHg 77%
    21:00 +11°C° 0 mm 3 mps 577 mmHg 79%
    22:00 +10°C° 0 mm 2 mps 577 mmHg 81%
    23:00 +10°C° 0 mm 2 mps 577 mmHg 83%

    23 January, Tuesday

    Time Temperature Precipitation Wind Pressure Humidity
    00:00 +10°C° 0 mm 2 mps 577 mmHg 85%
    01:00 +9°C° 0 mm 2 mps 576 mmHg 86%
    02:00 +9°C° 0 mm 2 mps 576 mmHg 87%
    03:00 +9°C° 0 mm 2 mps 576 mmHg 88%
    04:00 +8°C° 0 mm 2 mps 576 mmHg 88%
    05:00 +8°C° 0 mm 2 mps 576 mmHg 89%
    06:00 +9°C° 0 mm 2 mps 577 mmHg 82%
    07:00 +12°C° 0 mm 2 mps 578 mmHg 75%
    08:00 +13°C° 0 mm 2 mps 578 mmHg 69%
    09:00 +15°C° 0 mm 2 mps 579 mmHg 61%
    10:00 +17°C° 0 mm 3 mps 579 mmHg 54%
    11:00 +19°C° 0 mm 3 mps 580 mmHg 46%
    12:00 +19°C° 0 mm 4 mps 579 mmHg 44%
    13:00 +20°C° 0 mm 4 mps 579 mmHg 42%
    14:00 +20°C° 0 mm 4 mps 578 mmHg 40%
    15:00 +19°C° 0 mm 4 mps 578 mmHg 43%
    16:00 +18°C° 0 mm 4 mps 578 mmHg 47%
    17:00 +17°C° 0 mm 4 mps 578 mmHg 51%
    18:00 +16°C° 0 mm 3 mps 577 mmHg 57%
    19:00 +14°C° 0 mm 2 mps 577 mmHg 63%
    20:00 +13°C° 0 mm 2 mps 577 mmHg 68%
    21:00 +13°C° 0 mm 1 mps 577 mmHg 70%
    22:00 +12°C° 0 mm 1 mps 577 mmHg 71%
    23:00 +12°C° 0 mm 1 mps 577 mmHg 73%
    Show more